THY1050 KLGA-KBOS

Flight info

Callsign THY1050
Flight time 0h 40m
Altitude 21000
Route MERIT ROBUC3
Aircraft B738/M-SDE2E3FGHIRWXY/LB1

Departure

Time 2026-05-04 04:30
Airport LaGuardia Airport (KLGA)

Arrival

Time 2026-05-04 05:10
Airport Boston Logan International Airport (KBOS)
Time Latitude Longitude Altitude Speed Heading
2026-05-04 04:08 40.77524 -73.86901 13 ft 0 kts 184°
2026-05-04 04:20 40.77532 -73.86900 15 ft 3 kts 180°
2026-05-04 04:20 40.77551 -73.86903 13 ft 3 kts 158°
2026-05-04 04:21 40.77566 -73.86915 15 ft 3 kts 117°
2026-05-04 04:21 40.77570 -73.86938 14 ft 3 kts 79°
2026-05-04 04:21 40.77564 -73.86962 15 ft 3 kts 57°
2026-05-04 04:21 40.77553 -73.86980 14 ft 2 kts 34°
2026-05-04 04:22 40.77551 -73.86982 14 ft 0 kts 32°
2026-05-04 04:23 40.77559 -73.86975 13 ft 4 kts 32°
2026-05-04 04:24 40.77600 -73.86930 11 ft 10 kts 66°
2026-05-04 04:24 40.77584 -73.86834 11 ft 12 kts 81°
2026-05-04 04:24 40.77578 -73.86725 10 ft 13 kts 117°
2026-05-04 04:24 40.77524 -73.86608 9 ft 16 kts 123°
2026-05-04 04:25 40.77466 -73.86489 11 ft 15 kts 123°
2026-05-04 04:25 40.77411 -73.86376 11 ft 15 kts 122°
2026-05-04 04:25 40.77359 -73.86265 13 ft 14 kts 122°
2026-05-04 04:25 40.77309 -73.86159 15 ft 13 kts 122°
2026-05-04 04:26 40.77261 -73.86057 14 ft 13 kts 122°
2026-05-04 04:26 40.77212 -73.85953 13 ft 13 kts 123°
2026-05-04 04:26 40.77164 -73.85853 13 ft 13 kts 119°
2026-05-04 04:26 40.77161 -73.85796 12 ft 0 kts 64°
2026-05-04 04:28 40.77162 -73.85794 12 ft 1 kts 64°
2026-05-04 04:28 40.77174 -73.85774 13 ft 5 kts 44°
2026-05-04 04:28 40.77212 -73.85759 13 ft 7 kts 352°
2026-05-04 04:28 40.77246 -73.85798 14 ft 7 kts 307°
2026-05-04 04:29 40.77272 -73.85850 14 ft 7 kts 302°
2026-05-04 04:29 40.77305 -73.85919 13 ft 14 kts 302°
2026-05-04 04:29 40.77506 -73.86340 12 ft 101 kts 302°
2026-05-04 04:29 40.77821 -73.87003 26 ft 154 kts 301°
2026-05-04 04:30 40.78462 -73.88316 629 ft 183 kts 299°
2026-05-04 04:30 40.79167 -73.89779 1530 ft 191 kts 298°
2026-05-04 04:30 40.79885 -73.91270 2399 ft 197 kts 299°
2026-05-04 04:30 40.80650 -73.92900 2785 ft 223 kts 298°
2026-05-04 04:31 40.81472 -73.94695 3458 ft 236 kts 299°
2026-05-04 04:31 40.82311 -73.96563 4506 ft 237 kts 299°
2026-05-04 04:31 40.83141 -73.98457 5527 ft 239 kts 299°
2026-05-04 04:31 40.83939 -74.00324 6478 ft 243 kts 299°
2026-05-04 04:32 40.84767 -74.02295 7372 ft 248 kts 298°
2026-05-04 04:32 40.85602 -74.04306 8308 ft 251 kts 298°
2026-05-04 04:32 40.86441 -74.06345 9263 ft 254 kts 298°
2026-05-04 04:32 40.87286 -74.08421 10168 ft 258 kts 298°
2026-05-04 04:33 40.88169 -74.10587 10610 ft 281 kts 298°
2026-05-04 04:33 40.89151 -74.12965 10818 ft 307 kts 301°
2026-05-04 04:33 40.90669 -74.15020 11343 ft 324 kts 327°
2026-05-04 04:33 40.92835 -74.16013 12133 ft 338 kts 346°
2026-05-04 04:34 40.95230 -74.16027 12923 ft 354 kts
2026-05-04 04:34 40.97595 -74.15017 13681 ft 372 kts 22°
2026-05-04 04:34 40.99724 -74.12962 14413 ft 387 kts 40°
2026-05-04 04:34 41.01387 -74.10117 15258 ft 397 kts 57°
2026-05-04 04:35 41.02564 -74.06774 16103 ft 404 kts 66°
2026-05-04 04:35 41.03520 -74.03253 16890 ft 409 kts 69°
2026-05-04 04:35 41.04411 -73.99642 17669 ft 415 kts 70°
2026-05-04 04:35 41.05311 -73.95976 18374 ft 421 kts 69°
2026-05-04 04:36 41.06246 -73.92272 19056 ft 425 kts 68°
2026-05-04 04:36 41.07217 -73.88546 19734 ft 429 kts 68°
2026-05-04 04:36 41.08203 -73.84856 20403 ft 432 kts 67°
2026-05-04 04:36 41.09230 -73.81077 20944 ft 437 kts 67°
2026-05-04 04:37 41.12427 -73.69445 20979 ft 450 kts 67°
2026-05-04 04:37 41.13495 -73.65550 20978 ft 449 kts 67°
2026-05-04 04:38 41.14560 -73.61661 20984 ft 449 kts 66°
2026-05-04 04:38 41.15625 -73.57767 20984 ft 449 kts 66°
2026-05-04 04:38 41.16692 -73.53858 20985 ft 450 kts 67°
2026-05-04 04:38 41.17756 -73.49952 20987 ft 451 kts 67°
2026-05-04 04:39 41.18822 -73.46034 20996 ft 451 kts 67°
2026-05-04 04:39 41.19887 -73.42114 21015 ft 451 kts 67°
2026-05-04 04:39 41.20951 -73.38190 21006 ft 452 kts 67°
2026-05-04 04:39 41.22013 -73.34267 20998 ft 452 kts 67°
2026-05-04 04:40 41.23077 -73.30332 20994 ft 451 kts 67°
2026-05-04 04:40 41.24136 -73.26405 21003 ft 451 kts 67°
2026-05-04 04:40 41.25180 -73.22531 20996 ft 451 kts 67°
2026-05-04 04:40 41.26241 -73.18590 21001 ft 451 kts 67°
2026-05-04 04:41 41.27296 -73.14661 21004 ft 451 kts 67°
2026-05-04 04:41 41.28352 -73.10726 20995 ft 451 kts 67°
2026-05-04 04:41 41.29403 -73.06801 20987 ft 451 kts 67°
2026-05-04 04:41 41.30455 -73.02864 20993 ft 451 kts 67°
2026-05-04 04:42 41.31480 -72.99023 20983 ft 451 kts 67°
2026-05-04 04:42 41.32530 -72.95086 20990 ft 451 kts 67°
2026-05-04 04:42 41.33568 -72.91182 21010 ft 452 kts 67°
2026-05-04 04:42 41.34616 -72.87239 20995 ft 452 kts 67°
2026-05-04 04:43 41.35663 -72.83290 20997 ft 452 kts 67°
2026-05-04 04:43 41.36710 -72.79339 20987 ft 452 kts 67°
2026-05-04 04:43 41.37754 -72.75388 20985 ft 452 kts 67°
2026-05-04 04:43 41.38795 -72.71444 20988 ft 452 kts 67°
2026-05-04 04:44 41.39836 -72.67493 20989 ft 452 kts 67°
2026-05-04 04:44 41.40874 -72.63548 20991 ft 451 kts 67°
2026-05-04 04:44 41.41911 -72.59600 20997 ft 451 kts 67°
2026-05-04 04:44 41.42935 -72.55693 20991 ft 452 kts 67°
2026-05-04 04:45 41.43971 -72.51739 20991 ft 452 kts 67°
2026-05-04 04:45 41.45005 -72.47782 20993 ft 452 kts 67°
2026-05-04 04:45 41.46038 -72.43826 20991 ft 452 kts 67°
2026-05-04 04:47 41.52212 -72.20032 20979 ft 453 kts 67°
2026-05-04 04:47 41.53235 -72.16065 20973 ft 447 kts 67°
2026-05-04 04:47 41.54222 -72.12214 20953 ft 431 kts 67°
2026-05-04 04:47 41.55181 -72.08471 20581 ft 422 kts 67°
2026-05-04 04:48 41.56129 -72.04778 20178 ft 417 kts 67°
2026-05-04 04:49 41.59743 -71.90664 18489 ft 396 kts 66°
2026-05-04 04:49 41.60627 -71.87195 18040 ft 392 kts 67°
2026-05-04 04:49 41.61502 -71.83761 17566 ft 388 kts 66°
2026-05-04 04:49 41.62366 -71.80360 17121 ft 384 kts 66°
2026-05-04 04:50 41.63219 -71.77001 16707 ft 379 kts 66°
2026-05-04 04:50 41.64060 -71.73683 16292 ft 375 kts 66°
2026-05-04 04:50 41.64892 -71.70396 15880 ft 371 kts 66°
2026-05-04 04:50 41.65714 -71.67146 15625 ft 365 kts 66°
2026-05-04 04:51 41.66517 -71.63962 15485 ft 358 kts 66°
2026-05-04 04:51 41.67310 -71.60819 15341 ft 356 kts 66°
2026-05-04 04:51 41.68100 -71.57699 15131 ft 352 kts 65°
2026-05-04 04:51 41.68952 -71.54706 14811 ft 346 kts 63°
2026-05-04 04:52 41.69842 -71.51747 14549 ft 340 kts 62°
2026-05-04 04:52 41.70715 -71.48828 14228 ft 337 kts 63°
2026-05-04 04:52 41.71570 -71.45924 13915 ft 334 kts 63°
2026-05-04 04:52 41.72418 -71.43046 13567 ft 330 kts 61°
2026-05-04 04:53 41.73445 -71.40342 13207 ft 323 kts 53°
2026-05-04 04:53 41.74592 -71.37784 12874 ft 319 kts 52°
2026-05-04 04:53 41.75730 -71.35252 12548 ft 316 kts 52°
2026-05-04 04:53 41.76836 -71.32723 12221 ft 313 kts 52°
2026-05-04 04:54 41.77919 -71.30205 11904 ft 310 kts 53°
2026-05-04 04:54 41.78986 -71.27708 11589 ft 307 kts 52°
2026-05-04 04:54 41.80044 -71.25227 11286 ft 305 kts 52°
2026-05-04 04:54 41.81082 -71.22785 11120 ft 298 kts 52°
2026-05-04 04:55 41.82106 -71.20379 11006 ft 297 kts 52°
2026-05-04 04:55 41.83166 -71.17965 10701 ft 304 kts 51°
2026-05-04 04:55 41.84264 -71.15508 10390 ft 309 kts 51°
2026-05-04 04:55 41.85363 -71.13045 10061 ft 307 kts 51°
2026-05-04 04:56 41.86432 -71.10638 9945 ft 297 kts 51°
2026-05-04 04:56 41.87490 -71.08254 9450 ft 301 kts 51°
2026-05-04 04:56 41.88555 -71.05855 9106 ft 298 kts 51°
2026-05-04 04:56 41.89611 -71.03473 8783 ft 296 kts 51°
2026-05-04 04:57 41.90660 -71.01102 8468 ft 294 kts 52°
2026-05-04 04:57 41.91664 -70.98829 8171 ft 291 kts 52°
2026-05-04 04:57 41.92703 -70.96512 7939 ft 285 kts 50°
2026-05-04 04:57 41.93796 -70.94341 7789 ft 278 kts 46°
2026-05-04 04:58 41.94994 -70.92323 7654 ft 275 kts 41°
2026-05-04 04:58 41.96242 -70.90368 7527 ft 276 kts 41°
2026-05-04 04:58 41.97498 -70.88413 7380 ft 277 kts 41°
2026-05-04 04:58 41.98752 -70.86439 7263 ft 278 kts 41°
2026-05-04 04:59 42.00006 -70.84460 7123 ft 279 kts 41°
2026-05-04 04:59 42.01265 -70.82462 6978 ft 278 kts 41°
2026-05-04 04:59 42.02507 -70.80480 6834 ft 275 kts 41°
2026-05-04 04:59 42.03711 -70.78551 6692 ft 272 kts 41°
2026-05-04 05:00 42.04930 -70.76597 6554 ft 271 kts 42°
2026-05-04 05:00 42.06108 -70.74700 6404 ft 257 kts 41°
2026-05-04 05:00 42.08331 -70.71124 6144 ft 242 kts 40°
2026-05-04 05:01 42.09410 -70.69413 6034 ft 236 kts 36°
2026-05-04 05:01 42.10732 -70.68353 5831 ft 211 kts 359°
2026-05-04 05:01 42.12048 -70.68713 5662 ft 186 kts 321°
2026-05-04 05:01 42.13055 -70.69723 5437 ft 178 kts 320°
2026-05-04 05:02 42.14027 -70.70677 5151 ft 171 kts 318°
2026-05-04 05:02 42.14920 -70.71669 4948 ft 161 kts 315°
2026-05-04 05:02 42.15732 -70.72663 4758 ft 153 kts 314°
2026-05-04 05:02 42.16497 -70.73645 4603 ft 152 kts 313°
2026-05-04 05:03 42.17256 -70.74644 4442 ft 152 kts 313°
2026-05-04 05:03 42.18010 -70.75649 4285 ft 152 kts 312°
2026-05-04 05:04 42.20284 -70.78706 3818 ft 156 kts 313°
2026-05-04 05:04 42.21053 -70.79744 3657 ft 157 kts 312°
2026-05-04 05:04 42.21826 -70.80786 3497 ft 157 kts 313°
2026-05-04 05:06 42.26968 -70.87716 2451 ft 140 kts 312°
2026-05-04 05:06 42.27658 -70.88644 2248 ft 141 kts 312°
2026-05-04 05:06 42.28352 -70.89579 2059 ft 141 kts 311°
2026-05-04 05:07 42.29044 -70.90512 1868 ft 141 kts 311°
2026-05-04 05:07 42.29742 -70.91452 1680 ft 142 kts 311°
2026-05-04 05:07 42.30443 -70.92396 1477 ft 143 kts 311°
2026-05-04 05:09 42.36255 -71.00218 22 ft 122 kts 315°
2026-05-04 05:09 42.36751 -71.00884 25 ft 79 kts 314°
2026-05-04 05:10 42.37038 -71.01273 26 ft 37 kts 316°
2026-05-04 05:10 42.37140 -71.01407 26 ft 14 kts 316°
2026-05-04 05:10 42.37206 -71.01504 26 ft 14 kts 297°
2026-05-04 05:10 42.37188 -71.01618 26 ft 13 kts 225°
2026-05-04 05:11 42.37114 -71.01682 26 ft 13 kts 182°
2026-05-04 05:11 42.37043 -71.01617 25 ft 13 kts 136°
2026-05-04 05:11 42.36984 -71.01533 29 ft 12 kts 133°
2026-05-04 05:11 42.36931 -71.01462 25 ft 7 kts 152°
2026-05-04 05:12 42.36892 -71.01472 27 ft 4 kts 217°
2026-05-04 05:12 42.36873 -71.01497 28 ft 4 kts 228°
2026-05-04 05:12 42.36867 -71.01507 25 ft 0 kts 227°